Time,TemperatureF,DewpointF,PressureIn,WindDirection,WindDirectionDegrees,WindSpeedMPH,WindSpeedGustMPH,Humidity,HourlyPrecipIn,Conditions,Clouds,dailyrainin,SoftwareType,DateUTC
2013-02-10 00:00:00,26.3,13.9,30.47,South,180,0.0,1.8,59,2.59,,,0.00,WUHU216HW,2013-02-10 05:00:00,
2013-02-10 00:05:00,25.9,13.5,30.46,South,180,0.7,1.1,59,2.59,,,0.00,WUHU216HW,2013-02-10 05:05:00,
2013-02-10 00:10:00,25.7,13.3,30.46,SSW,203,0.0,1.3,59,2.59,,,0.00,WUHU216HW,2013-02-10 05:10:00,
2013-02-10 00:15:00,25.9,13.5,30.46,WSW,248,0.2,1.3,59,2.59,,,0.00,WUHU216HW,2013-02-10 05:15:00,
2013-02-10 00:20:00,26.3,13.9,30.47,SE,135,0.0,0.9,59,2.59,,,0.00,WUHU216HW,2013-02-10 05:20:00,
2013-02-10 00:25:00,26.3,13.9,30.47,SE,135,0.0,0.9,59,2.59,,,0.00,WUHU216HW,2013-02-10 05:25:00,
2013-02-10 00:30:00,26.1,13.7,30.47,SE,135,0.0,0.2,59,2.59,,,0.00,WUHU216HW,2013-02-10 05:30:00,
2013-02-10 00:35:00,25.9,13.5,30.47,SSW,203,0.0,0.2,59,2.59,,,0.00,WUHU216HW,2013-02-10 05:35:00,
2013-02-10 00:40:00,25.7,13.3,30.47,NNW,338,0.4,0.4,59,2.59,,,0.00,WUHU216HW,2013-02-10 05:40:00,
2013-02-10 00:45:00,25.7,13.3,30.47,ESE,113,0.9,0.9,59,2.59,,,0.00,WUHU216HW,2013-02-10 05:45:00,
2013-02-10 00:50:00,25.6,13.2,30.47,North,0,0.0,1.1,59,2.59,,,0.00,WUHU216HW,2013-02-10 05:50:00,
2013-02-10 00:55:00,25.4,13.1,30.46,SSE,158,0.7,2.2,59,2.59,,,0.00,WUHU216HW,2013-02-10 05:55:00,
2013-02-10 01:00:00,25.4,13.4,30.46,SSE,158,0.7,2.2,60,2.59,,,0.00,WUHU216HW,2013-02-10 06:00:00,
2013-02-10 01:05:00,25.4,13.1,30.46,SW,225,0.0,1.1,59,2.59,,,0.00,WUHU216HW,2013-02-10 06:05:00,
2013-02-10 01:10:00,25.4,13.1,30.46,SSE,158,0.2,1.1,59,2.59,,,0.00,WUHU216HW,2013-02-10 06:10:00,
2013-02-10 01:15:00,25.4,13.1,30.47,NNE,23,0.0,1.1,59,2.59,,,0.00,WUHU216HW,2013-02-10 06:15:00,
2013-02-10 01:20:00,25.4,13.1,30.47,NW,315,0.0,1.8,59,2.59,,,0.00,WUHU216HW,2013-02-10 06:20:00,
2013-02-10 01:25:00,25.2,13.3,30.47,SE,135,0.0,1.8,60,2.59,,,0.00,WUHU216HW,2013-02-10 06:25:00,
2013-02-10 01:30:00,25.2,13.3,30.47,SSE,158,0.4,1.1,60,2.59,,,0.00,WUHU216HW,2013-02-10 06:30:00,
2013-02-10 01:35:00,25.4,13.1,30.47,SSE,158,0.0,1.1,59,2.59,,,0.00,WUHU216HW,2013-02-10 06:35:00,
2013-02-10 01:40:00,25.6,13.2,30.47,SW,225,0.0,1.1,59,2.59,,,0.00,WUHU216HW,2013-02-10 06:40:00,
2013-02-10 01:45:00,25.6,13.2,30.47,NNE,23,0.9,1.3,59,2.59,,,0.00,WUHU216HW,2013-02-10 06:45:00,
2013-02-10 01:50:00,25.6,13.2,30.47,SE,135,1.1,1.3,59,2.59,,,0.00,WUHU216HW,2013-02-10 06:50:00,
2013-02-10 01:55:00,25.6,13.2,30.47,East,90,0.0,1.3,59,2.59,,,0.00,WUHU216HW,2013-02-10 06:55:00,
2013-02-10 02:00:00,25.4,13.4,30.47,ESE,113,1.1,1.6,60,2.64,,,0.00,WUHU216HW,2013-02-10 07:00:00,
2013-02-10 02:05:00,25.2,13.3,30.47,ESE,113,1.1,1.6,60,2.64,,,0.00,WUHU216HW,2013-02-10 07:05:00,
2013-02-10 02:10:00,24.8,13.0,30.47,ESE,113,1.1,1.8,60,2.64,,,0.00,WUHU216HW,2013-02-10 07:10:00,
2013-02-10 02:15:00,24.7,12.8,30.47,ESE,113,1.1,1.8,60,2.64,,,0.00,WUHU216HW,2013-02-10 07:15:00,
2013-02-10 02:20:00,24.7,13.2,30.47,ENE,68,1.8,1.8,61,2.64,,,0.00,WUHU216HW,2013-02-10 07:20:00,
2013-02-10 02:25:00,24.5,13.0,30.47,East,90,1.6,1.8,61,2.64,,,0.00,WUHU216HW,2013-02-10 07:25:00,
2013-02-10 02:30:00,24.3,12.8,30.47,East,90,0.7,1.8,61,2.64,,,0.00,WUHU216HW,2013-02-10 07:30:00,
2013-02-10 02:35:00,24.3,12.8,30.47,East,90,1.6,1.6,61,2.64,,,0.00,WUHU216HW,2013-02-10 07:35:00,
2013-02-10 02:40:00,24.3,12.8,30.47,East,90,1.6,2.0,61,2.64,,,0.00,WUHU216HW,2013-02-10 07:40:00,
2013-02-10 02:45:00,24.3,12.8,30.48,East,90,2.2,2.2,61,2.64,,,0.00,WUHU216HW,2013-02-10 07:45:00,
2013-02-10 02:50:00,24.3,12.8,30.48,East,90,1.3,2.2,61,2.64,,,0.00,WUHU216HW,2013-02-10 07:50:00,
2013-02-10 02:55:00,24.1,12.6,30.48,ESE,113,2.0,2.2,61,2.64,,,0.00,WUHU216HW,2013-02-10 07:55:00,
2013-02-10 03:00:00,24.1,12.6,30.48,South,180,1.3,2.5,61,2.59,,,0.00,WUHU216HW,2013-02-10 08:00:00,
2013-02-10 03:05:00,24.7,13.2,30.48,SE,135,0.9,2.5,61,2.59,,,0.00,WUHU216HW,2013-02-10 08:05:00,
2013-02-10 03:10:00,24.8,13.3,30.48,SE,135,0.7,1.6,61,2.59,,,0.00,WUHU216HW,2013-02-10 08:10:00,
2013-02-10 03:15:00,24.7,12.8,30.47,ESE,113,0.9,1.6,60,2.59,,,0.00,WUHU216HW,2013-02-10 08:15:00,
2013-02-10 03:20:00,24.5,12.6,30.47,ESE,113,0.0,1.8,60,2.59,,,0.00,WUHU216HW,2013-02-10 08:20:00,
2013-02-10 03:25:00,24.7,12.8,30.47,East,90,1.1,1.8,60,2.59,,,0.00,WUHU216HW,2013-02-10 08:25:00,
2013-02-10 03:30:00,24.5,12.6,30.47,ESE,113,1.1,1.8,60,2.59,,,0.00,WUHU216HW,2013-02-10 08:30:00,
2013-02-10 03:35:00,24.3,12.4,30.47,ESE,113,0.9,1.8,60,2.59,,,0.00,WUHU216HW,2013-02-10 08:35:00,
2013-02-10 03:40:00,24.3,12.4,30.47,ESE,113,1.8,1.8,60,2.59,,,0.00,WUHU216HW,2013-02-10 08:40:00,
2013-02-10 03:45:00,24.7,12.3,30.47,SE,135,2.5,2.5,59,2.59,,,0.00,WUHU216HW,2013-02-10 08:45:00,
2013-02-10 03:50:00,24.8,12.5,30.47,ESE,113,1.3,2.5,59,2.59,,,0.00,WUHU216HW,2013-02-10 08:50:00,
2013-02-10 03:55:00,25.0,12.7,30.47,SE,135,2.0,2.5,59,2.59,,,0.00,WUHU216HW,2013-02-10 08:55:00,
2013-02-10 04:00:00,25.2,12.9,30.47,SE,135,1.8,2.5,59,0.00,,,0.00,WUHU216HW,2013-02-10 09:00:00,
2013-02-10 04:05:00,25.4,12.6,30.47,ESE,113,1.6,2.5,58,2.59,,,0.00,WUHU216HW,2013-02-10 09:05:00,
2013-02-10 04:10:00,25.4,12.6,30.47,SE,135,1.3,2.5,58,2.59,,,0.00,WUHU216HW,2013-02-10 09:10:00,
2013-02-10 04:15:00,25.4,12.3,30.47,SSE,158,1.3,3.4,57,2.59,,,0.00,WUHU216HW,2013-02-10 09:15:00,
2013-02-10 04:20:00,25.7,12.2,30.46,ESE,113,2.0,4.0,56,2.59,,,0.00,WUHU216HW,2013-02-10 09:20:00,
2013-02-10 04:25:00,26.3,11.8,30.46,SE,135,3.1,4.0,54,2.59,,,0.00,WUHU216HW,2013-02-10 09:25:00,
2013-02-10 04:30:00,26.5,12.3,30.46,ESE,113,3.4,4.0,55,2.59,,,0.00,WUHU216HW,2013-02-10 09:30:00,
2013-02-10 04:35:00,26.5,12.3,30.46,ESE,113,4.7,4.7,55,2.59,,,0.00,WUHU216HW,2013-02-10 09:35:00,
2013-02-10 04:40:00,26.6,12.1,30.46,SE,135,4.0,4.7,54,2.59,,,0.00,WUHU216HW,2013-02-10 09:40:00,
2013-02-10 04:45:00,26.6,11.7,30.46,SE,135,2.2,4.7,53,2.59,,,0.00,WUHU216HW,2013-02-10 09:45:00,
2013-02-10 04:50:00,26.5,12.0,30.47,SE,135,1.8,4.0,54,2.59,,,0.00,WUHU216HW,2013-02-10 09:50:00,
2013-02-10 04:55:00,26.3,11.8,30.47,SE,135,3.4,4.0,54,2.59,,,0.00,WUHU216HW,2013-02-10 09:55:00,
2013-02-10 05:00:00,26.3,11.8,30.46,ESE,113,2.9,4.7,54,2.59,,,0.00,WUHU216HW,2013-02-10 10:00:00,
2013-02-10 05:05:00,26.3,11.8,30.46,ENE,68,0.7,4.7,54,2.59,,,0.00,WUHU216HW,2013-02-10 10:05:00,
2013-02-10 05:10:00,26.6,11.7,30.47,SE,135,2.5,3.6,53,2.59,,,0.00,WUHU216HW,2013-02-10 10:10:00,
2013-02-10 05:15:00,26.8,11.9,30.47,SE,135,1.3,3.6,53,2.59,,,0.00,WUHU216HW,2013-02-10 10:15:00,
2013-02-10 05:20:00,26.8,11.4,30.47,SE,135,2.7,3.4,52,2.59,,,0.00,WUHU216HW,2013-02-10 10:20:00,
2013-02-10 05:25:00,26.8,11.1,30.47,SE,135,6.3,6.3,51,2.59,,,0.00,WUHU216HW,2013-02-10 10:25:00,
2013-02-10 05:30:00,27.2,11.4,30.46,SE,135,4.9,7.6,51,2.59,,,0.00,WUHU216HW,2013-02-10 10:30:00,
2013-02-10 05:35:00,27.4,11.2,30.46,ESE,113,4.5,7.6,50,2.59,,,0.00,WUHU216HW,2013-02-10 10:35:00,
2013-02-10 05:40:00,27.4,11.6,30.46,SE,135,6.5,6.7,51,2.59,,,0.00,WUHU216HW,2013-02-10 10:40:00,
2013-02-10 05:45:00,27.2,11.4,30.47,SSE,158,4.7,6.7,51,2.59,,,0.00,WUHU216HW,2013-02-10 10:45:00,
2013-02-10 05:50:00,26.8,11.1,30.47,ESE,113,7.2,7.4,51,2.59,,,0.00,WUHU216HW,2013-02-10 10:50:00,
2013-02-10 05:55:00,26.6,11.3,30.47,SE,135,4.7,8.5,52,2.59,,,0.00,WUHU216HW,2013-02-10 10:55:00,
2013-02-10 06:00:00,26.3,11.3,30.47,SSE,158,4.7,8.5,53,2.59,,,0.00,WUHU216HW,2013-02-10 11:00:00,
2013-02-10 06:05:00,26.1,11.6,30.48,SE,135,5.1,7.8,54,2.59,,,0.00,WUHU216HW,2013-02-10 11:05:00,
2013-02-10 06:10:00,25.7,11.7,30.48,SE,135,4.7,6.9,55,2.59,,,0.00,WUHU216HW,2013-02-10 11:10:00,
2013-02-10 06:15:00,25.4,11.8,30.48,SE,135,5.4,6.9,56,2.59,,,0.00,WUHU216HW,2013-02-10 11:15:00,
2013-02-10 06:20:00,25.0,11.9,30.48,SE,135,4.3,6.3,57,2.59,,,0.00,WUHU216HW,2013-02-10 11:20:00,
2013-02-10 06:25:00,24.8,12.2,30.48,SE,135,5.4,6.3,58,2.59,,,0.00,WUHU216HW,2013-02-10 11:25:00,
2013-02-10 06:30:00,24.8,12.2,30.48,SE,135,6.7,7.2,58,2.59,,,0.00,WUHU216HW,2013-02-10 11:30:00,
2013-02-10 06:35:00,25.0,12.7,30.48,ESE,113,6.0,7.2,59,2.59,,,0.00,WUHU216HW,2013-02-10 11:35:00,
2013-02-10 06:40:00,25.2,12.4,30.48,SE,135,6.9,7.8,58,2.59,,,0.00,WUHU216HW,2013-02-10 11:40:00,
2013-02-10 06:45:00,25.6,12.3,30.48,SSE,158,8.3,8.9,57,2.59,,,0.00,WUHU216HW,2013-02-10 11:45:00,
2013-02-10 06:50:00,25.7,12.5,30.48,ESE,113,9.2,9.2,57,2.59,,,0.00,WUHU216HW,2013-02-10 11:50:00,
2013-02-10 06:55:00,26.1,12.4,30.48,East,90,6.0,10.3,56,2.59,,,0.00,WUHU216HW,2013-02-10 11:55:00,
2013-02-10 07:00:00,26.3,12.6,30.48,ESE,113,7.4,11.0,56,0.00,,,0.00,WUHU216HW,2013-02-10 12:00:00,
2013-02-10 07:05:00,26.3,12.2,30.48,SE,135,5.8,11.4,55,2.59,,,0.00,WUHU216HW,2013-02-10 12:05:00,
2013-02-10 07:10:00,26.5,12.8,30.48,SSE,158,9.2,11.4,56,2.59,,,0.00,WUHU216HW,2013-02-10 12:10:00,
2013-02-10 07:15:00,26.3,12.6,30.48,ESE,113,8.7,9.8,56,2.59,,,0.00,WUHU216HW,2013-02-10 12:15:00,
2013-02-10 07:20:00,26.3,12.6,30.49,SE,135,7.6,9.8,56,2.59,,,0.00,WUHU216HW,2013-02-10 12:20:00,
2013-02-10 07:25:00,26.3,12.6,30.49,SE,135,6.3,10.1,56,2.59,,,0.00,WUHU216HW,2013-02-10 12:25:00,
2013-02-10 07:30:00,26.3,12.6,30.49,ESE,113,8.5,10.1,56,2.59,,,0.00,WUHU216HW,2013-02-10 12:30:00,
2013-02-10 07:35:00,26.3,12.6,30.50,SSE,158,7.2,10.1,56,2.59,,,0.00,WUHU216HW,2013-02-10 12:35:00,
2013-02-10 07:40:00,26.3,13.1,30.50,SSE,158,5.1,10.1,57,2.59,,,0.00,WUHU216HW,2013-02-10 12:40:00,
2013-02-10 07:45:00,26.1,12.9,30.51,ESE,113,3.4,8.5,57,2.59,,,0.00,WUHU216HW,2013-02-10 12:45:00,
2013-02-10 07:50:00,26.1,12.9,30.51,ESE,113,4.9,6.3,57,2.59,,,0.00,WUHU216HW,2013-02-10 12:50:00,
2013-02-10 07:55:00,26.1,12.9,30.51,SE,135,3.8,6.3,57,2.59,,,0.00,WUHU216HW,2013-02-10 12:55:00,
2013-02-10 08:00:00,26.3,13.1,30.51,SE,135,6.5,6.7,57,0.00,,,0.00,WUHU216HW,2013-02-10 13:00:00,
2013-02-10 08:05:00,26.6,13.3,30.51,SSE,158,5.4,8.7,57,2.59,,,0.00,WUHU216HW,2013-02-10 13:05:00,
2013-02-10 08:10:00,27.0,13.7,30.51,SE,135,5.4,8.7,57,2.59,,,0.00,WUHU216HW,2013-02-10 13:10:00,
2013-02-10 08:15:00,27.0,13.7,30.51,SE,135,5.4,6.9,57,2.59,,,0.00,WUHU216HW,2013-02-10 13:15:00,
2013-02-10 08:20:00,27.2,13.9,30.51,ESE,113,7.8,8.5,57,2.59,,,0.00,WUHU216HW,2013-02-10 13:20:00,
2013-02-10 08:25:00,27.4,13.7,30.51,ESE,113,7.6,9.6,56,2.59,,,0.00,WUHU216HW,2013-02-10 13:25:00,
2013-02-10 08:30:00,27.4,13.7,30.51,SE,135,7.2,9.6,56,2.59,,,0.00,WUHU216HW,2013-02-10 13:30:00,
2013-02-10 08:35:00,27.4,13.7,30.51,ESE,113,8.3,8.3,56,2.59,,,0.00,WUHU216HW,2013-02-10 13:35:00,
2013-02-10 08:40:00,27.4,13.2,30.51,SE,135,6.9,8.9,55,2.59,,,0.00,WUHU216HW,2013-02-10 13:40:00,
2013-02-10 08:45:00,27.4,13.7,30.51,SE,135,5.4,8.9,56,2.59,,,0.00,WUHU216HW,2013-02-10 13:45:00,
2013-02-10 08:50:00,27.4,13.7,30.51,SE,135,7.8,8.7,56,2.59,,,0.00,WUHU216HW,2013-02-10 13:50:00,
2013-02-10 08:55:00,27.4,13.2,30.50,SE,135,6.3,8.7,55,2.59,,,0.00,WUHU216HW,2013-02-10 13:55:00,
2013-02-10 09:00:00,27.5,13.9,30.50,ESE,113,5.4,7.6,56,2.59,,,0.00,WUHU216HW,2013-02-10 14:00:00,
2013-02-10 09:05:00,27.7,13.6,30.50,ESE,113,8.5,8.7,55,2.59,,,0.00,WUHU216HW,2013-02-10 14:05:00,
2013-02-10 09:10:00,27.7,14.1,30.50,SE,135,4.7,8.9,56,2.59,,,0.00,WUHU216HW,2013-02-10 14:10:00,
2013-02-10 09:15:00,27.9,13.8,30.50,SE,135,7.6,9.6,55,2.59,,,0.00,WUHU216HW,2013-02-10 14:15:00,
2013-02-10 09:20:00,27.9,13.8,30.50,ESE,113,6.3,9.6,55,2.59,,,0.00,WUHU216HW,2013-02-10 14:20:00,
2013-02-10 09:25:00,27.9,13.8,30.50,SSE,158,4.3,8.7,55,2.59,,,0.00,WUHU216HW,2013-02-10 14:25:00,
2013-02-10 09:30:00,27.9,13.8,30.51,ESE,113,5.4,8.7,55,2.59,,,0.00,WUHU216HW,2013-02-10 14:30:00,
2013-02-10 09:35:00,28.1,14.0,30.51,ESE,113,5.8,9.4,55,2.59,,,0.00,WUHU216HW,2013-02-10 14:35:00,
2013-02-10 09:40:00,28.3,14.1,30.51,ESE,113,6.0,9.4,55,2.59,,,0.00,WUHU216HW,2013-02-10 14:40:00,
2013-02-10 09:45:00,28.4,14.3,30.51,South,180,7.4,10.1,55,2.59,,,0.00,WUHU216HW,2013-02-10 14:45:00,
2013-02-10 09:50:00,28.8,14.7,30.51,SE,135,4.9,10.1,55,2.59,,,0.00,WUHU216HW,2013-02-10 14:50:00,
2013-02-10 09:55:00,28.8,14.7,30.51,SE,135,4.5,8.7,55,2.59,,,0.00,WUHU216HW,2013-02-10 14:55:00,
2013-02-10 10:00:00,29.2,15.4,30.51,East,90,4.9,8.7,56,2.59,,,0.00,WUHU216HW,2013-02-10 15:00:00,
2013-02-10 10:05:00,29.5,15.7,30.51,ENE,68,7.4,7.6,56,2.59,,,0.00,WUHU216HW,2013-02-10 15:05:00,
2013-02-10 10:10:00,29.7,15.5,30.51,ESE,113,5.4,7.6,55,2.59,,,0.00,WUHU216HW,2013-02-10 15:10:00,
2013-02-10 10:15:00,29.9,16.0,30.50,SE,135,4.0,7.6,56,2.59,,,0.00,WUHU216HW,2013-02-10 15:15:00,
2013-02-10 10:20:00,29.9,16.0,30.50,South,180,7.6,9.8,56,2.59,,,0.00,WUHU216HW,2013-02-10 15:20:00,
2013-02-10 10:25:00,30.1,16.2,30.51,ESE,113,6.3,9.8,56,2.59,,,0.00,WUHU216HW,2013-02-10 15:25:00,
2013-02-10 10:30:00,30.2,16.4,30.50,SSE,158,4.7,9.4,56,2.59,,,0.00,WUHU216HW,2013-02-10 15:30:00,
2013-02-10 10:35:00,30.4,16.6,30.50,SE,135,3.4,9.4,56,2.59,,,0.00,WUHU216HW,2013-02-10 15:35:00,
2013-02-10 10:40:00,30.6,16.3,30.50,SE,135,4.0,9.6,55,2.59,,,0.00,WUHU216HW,2013-02-10 15:40:00,
2013-02-10 10:45:00,30.6,16.3,30.49,ESE,113,7.6,9.6,55,2.59,,,0.00,WUHU216HW,2013-02-10 15:45:00,
2013-02-10 10:50:00,30.6,16.3,30.49,East,90,8.5,9.8,55,2.59,,,0.00,WUHU216HW,2013-02-10 15:50:00,
2013-02-10 10:55:00,30.6,16.3,30.49,SE,135,6.9,11.2,55,2.59,,,0.00,WUHU216HW,2013-02-10 15:55:00,
2013-02-10 11:00:00,30.6,16.3,30.49,ESE,113,7.4,11.2,55,0.00,,,0.00,WUHU216HW,2013-02-10 16:00:00,
2013-02-10 11:05:00,30.6,16.3,30.48,SSE,158,7.2,9.8,55,2.59,,,0.00,WUHU216HW,2013-02-10 16:05:00,
2013-02-10 11:10:00,30.8,16.8,30.48,SE,135,7.6,9.8,56,2.59,,,0.00,WUHU216HW,2013-02-10 16:10:00,
2013-02-10 11:15:00,31.0,17.0,30.48,SSW,203,4.3,9.2,56,2.59,,,0.00,WUHU216HW,2013-02-10 16:15:00,
2013-02-10 11:20:00,31.1,17.2,30.48,SSE,158,5.6,9.2,56,2.59,,,0.00,WUHU216HW,2013-02-10 16:20:00,
2013-02-10 11:25:00,31.1,17.2,30.47,ESE,113,4.7,10.7,56,2.59,,,0.00,WUHU216HW,2013-02-10 16:25:00,
2013-02-10 11:30:00,31.3,17.4,30.47,SE,135,5.1,10.7,56,2.59,,,0.00,WUHU216HW,2013-02-10 16:30:00,
2013-02-10 11:35:00,31.3,16.6,30.47,ESE,113,3.4,9.2,54,2.59,,,0.00,WUHU216HW,2013-02-10 16:35:00,
2013-02-10 11:40:00,31.3,16.9,30.48,SE,135,6.3,9.2,55,2.59,,,0.00,WUHU216HW,2013-02-10 16:40:00,
2013-02-10 11:45:00,31.5,16.8,30.47,SE,135,5.6,7.6,54,2.59,,,0.00,WUHU216HW,2013-02-10 16:45:00,
2013-02-10 11:50:00,31.5,16.3,30.47,SE,135,8.3,11.6,53,2.59,,,0.00,WUHU216HW,2013-02-10 16:50:00,
2013-02-10 11:55:00,31.5,16.3,30.47,SE,135,9.8,11.6,53,2.59,,,0.00,WUHU216HW,2013-02-10 16:55:00,
2013-02-10 12:00:00,31.7,16.5,30.47,SSE,158,9.8,10.1,53,2.59,,,0.00,WUHU216HW,2013-02-10 17:00:00,
2013-02-10 12:05:00,32.0,16.7,30.47,SE,135,7.4,11.6,53,2.59,,,0.00,WUHU216HW,2013-02-10 17:05:00,
2013-02-10 12:10:00,32.0,16.7,30.46,East,90,6.9,11.6,53,2.59,,,0.00,WUHU216HW,2013-02-10 17:10:00,
2013-02-10 12:15:00,32.2,16.9,30.46,ESE,113,10.5,10.5,53,2.59,,,0.00,WUHU216HW,2013-02-10 17:15:00,
2013-02-10 12:20:00,32.4,17.1,30.46,SE,135,9.8,10.5,53,2.59,,,0.00,WUHU216HW,2013-02-10 17:20:00,
2013-02-10 12:25:00,32.4,17.1,30.46,ESE,113,6.7,10.5,53,2.59,,,0.00,WUHU216HW,2013-02-10 17:25:00,
2013-02-10 12:30:00,32.4,16.7,30.45,East,90,8.5,12.8,52,2.59,,,0.00,WUHU216HW,2013-02-10 17:30:00,
2013-02-10 12:35:00,32.8,17.5,30.45,South,180,5.4,12.8,53,2.59,,,0.00,WUHU216HW,2013-02-10 17:35:00,
2013-02-10 12:40:00,33.1,17.7,30.45,SSE,158,4.0,9.8,53,2.59,,,0.00,WUHU216HW,2013-02-10 17:40:00,
2013-02-10 12:45:00,32.9,17.2,30.45,SE,135,7.8,9.8,52,2.59,,,0.00,WUHU216HW,2013-02-10 17:45:00,
2013-02-10 12:50:00,32.9,17.2,30.45,ESE,113,8.5,9.4,52,2.59,,,0.00,WUHU216HW,2013-02-10 17:50:00,
2013-02-10 12:55:00,32.9,16.8,30.45,SE,135,7.2,8.7,51,2.59,,,0.00,WUHU216HW,2013-02-10 17:55:00,
2013-02-10 13:00:00,32.9,16.8,30.45,SSE,158,4.0,10.5,51,2.59,,,0.00,WUHU216HW,2013-02-10 18:00:00,
2013-02-10 13:05:00,33.3,17.0,30.44,SE,135,7.6,10.5,51,2.59,,,0.00,WUHU216HW,2013-02-10 18:05:00,
2013-02-10 13:10:00,33.5,16.7,30.45,SSE,158,4.5,10.5,50,2.59,,,0.00,WUHU216HW,2013-02-10 18:10:00,
2013-02-10 13:15:00,33.8,17.6,30.43,ESE,113,4.9,11.2,51,2.59,,,0.00,WUHU216HW,2013-02-10 18:15:00,
2013-02-10 13:20:00,34.0,17.3,30.43,SSE,158,2.2,11.2,50,2.59,,,0.00,WUHU216HW,2013-02-10 18:20:00,
2013-02-10 13:25:00,34.4,17.1,30.43,SE,135,6.3,8.1,49,2.59,,,0.00,WUHU216HW,2013-02-10 18:25:00,
2013-02-10 13:30:00,34.4,16.7,30.43,ESE,113,6.9,9.6,48,2.59,,,0.00,WUHU216HW,2013-02-10 18:30:00,
2013-02-10 13:35:00,34.7,17.5,30.43,ESE,113,5.8,11.2,49,2.59,,,0.00,WUHU216HW,2013-02-10 18:35:00,
2013-02-10 13:40:00,35.3,18.5,30.43,ENE,68,3.4,11.2,50,2.59,,,0.00,WUHU216HW,2013-02-10 18:40:00,
2013-02-10 13:45:00,35.8,18.5,30.43,SE,135,7.8,7.8,49,2.59,,,0.00,WUHU216HW,2013-02-10 18:45:00,
2013-02-10 13:50:00,36.0,18.2,30.42,SE,135,4.3,10.5,48,2.59,,,0.00,WUHU216HW,2013-02-10 18:50:00,
2013-02-10 13:55:00,36.2,18.4,30.42,East,90,3.4,10.5,48,2.59,,,0.00,WUHU216HW,2013-02-10 18:55:00,
2013-02-10 14:00:00,36.2,17.8,30.42,SE,135,6.3,8.9,47,2.59,,,0.00,WUHU216HW,2013-02-10 19:00:00,
2013-02-10 14:05:00,36.2,17.8,30.42,SE,135,4.7,9.4,47,2.59,,,0.00,WUHU216HW,2013-02-10 19:05:00,
2013-02-10 14:10:00,36.0,18.2,30.41,East,90,3.8,9.4,48,2.59,,,0.00,WUHU216HW,2013-02-10 19:10:00,
2013-02-10 14:15:00,36.2,18.4,30.41,ESE,113,5.1,8.1,48,2.59,,,0.00,WUHU216HW,2013-02-10 19:15:00,
2013-02-10 14:20:00,36.4,18.6,30.40,ENE,68,4.7,8.1,48,2.60,,,0.00,WUHU216HW,2013-02-10 19:20:00,
2013-02-10 14:25:00,36.4,18.6,30.40,SE,135,7.6,7.6,48,2.60,,,0.00,WUHU216HW,2013-02-10 19:25:00,
2013-02-10 14:30:00,36.4,18.6,30.41,SSE,158,4.5,8.5,48,2.60,,,0.00,WUHU216HW,2013-02-10 19:30:00,
2013-02-10 14:35:00,36.0,18.2,30.40,ESE,113,5.4,9.8,48,2.60,,,0.00,WUHU216HW,2013-02-10 19:35:00,
2013-02-10 14:40:00,35.8,18.5,30.40,SE,135,4.3,9.8,49,2.60,,,0.00,WUHU216HW,2013-02-10 19:40:00,
2013-02-10 14:45:00,36.0,18.2,30.40,SE,135,5.6,7.8,48,2.60,,,0.00,WUHU216HW,2013-02-10 19:45:00,
2013-02-10 14:50:00,36.2,18.9,30.40,ESE,113,4.5,7.8,49,2.60,,,0.00,WUHU216HW,2013-02-10 19:50:00,
2013-02-10 14:55:00,36.7,19.4,30.40,SE,135,4.7,8.7,49,2.60,,,0.00,WUHU216HW,2013-02-10 19:55:00,
2013-02-10 15:00:00,36.9,19.0,30.39,SSE,158,6.9,10.3,48,2.60,,,0.00,WUHU216HW,2013-02-10 20:00:00,
2013-02-10 15:05:00,37.1,19.2,30.39,SE,135,4.7,10.3,48,2.60,,,0.00,WUHU216HW,2013-02-10 20:05:00,
2013-02-10 15:10:00,37.3,19.4,30.39,ESE,113,5.4,10.3,48,2.60,,,0.00,WUHU216HW,2013-02-10 20:10:00,
2013-02-10 15:15:00,37.4,19.4,30.40,South,180,4.0,9.8,48,2.60,,,0.00,WUHU216HW,2013-02-10 20:15:00,
2013-02-10 15:20:00,37.4,19.4,30.39,South,180,5.4,9.8,48,2.59,,,0.00,WUHU216HW,2013-02-10 20:20:00,
2013-02-10 15:25:00,37.3,19.4,30.40,ESE,113,2.9,7.8,48,2.59,,,0.00,WUHU216HW,2013-02-10 20:25:00,
2013-02-10 15:30:00,37.4,19.4,30.40,ESE,113,4.0,9.2,48,2.59,,,0.00,WUHU216HW,2013-02-10 20:30:00,
2013-02-10 15:35:00,37.4,19.4,30.40,ESE,113,4.7,9.4,48,2.59,,,0.00,WUHU216HW,2013-02-10 20:35:00,
2013-02-10 15:40:00,37.4,19.4,30.39,SE,135,3.4,9.4,48,2.59,,,0.00,WUHU216HW,2013-02-10 20:40:00,
2013-02-10 15:45:00,37.6,19.6,30.39,South,180,5.4,9.8,48,2.59,,,0.00,WUHU216HW,2013-02-10 20:45:00,
2013-02-10 15:50:00,37.8,19.8,30.38,SE,135,2.9,9.8,48,2.59,,,0.00,WUHU216HW,2013-02-10 20:50:00,
2013-02-10 15:55:00,37.6,19.6,30.38,ESE,113,6.3,6.9,48,2.59,,,0.00,WUHU216HW,2013-02-10 20:55:00,
2013-02-10 16:00:00,37.4,19.0,30.38,NNE,23,2.5,6.9,47,2.59,,,0.00,WUHU216HW,2013-02-10 21:00:00,
2013-02-10 16:05:00,37.3,18.8,30.38,South,180,3.1,5.6,47,2.59,,,0.00,WUHU216HW,2013-02-10 21:05:00,
2013-02-10 16:10:00,37.1,19.2,30.38,ESE,113,3.4,8.3,48,2.59,,,0.00,WUHU216HW,2013-02-10 21:10:00,
2013-02-10 16:15:00,36.7,18.3,30.38,ESE,113,6.9,8.3,47,2.59,,,0.00,WUHU216HW,2013-02-10 21:15:00,
2013-02-10 16:20:00,36.4,18.6,30.39,SSE,158,3.4,7.6,48,2.59,,,0.00,WUHU216HW,2013-02-10 21:20:00,
2013-02-10 16:25:00,36.2,18.4,30.39,SE,135,4.7,7.4,48,2.59,,,0.00,WUHU216HW,2013-02-10 21:25:00,
2013-02-10 16:30:00,36.2,18.9,30.38,ESE,113,5.4,9.8,49,2.59,,,0.00,WUHU216HW,2013-02-10 21:30:00,
2013-02-10 16:35:00,36.0,18.7,30.38,SE,135,6.3,9.8,49,2.59,,,0.00,WUHU216HW,2013-02-10 21:35:00,
2013-02-10 16:40:00,36.0,18.7,30.38,East,90,5.4,8.9,49,2.59,,,0.00,WUHU216HW,2013-02-10 21:40:00,
2013-02-10 16:45:00,35.8,18.5,30.38,ESE,113,6.5,9.8,49,2.59,,,0.00,WUHU216HW,2013-02-10 21:45:00,
2013-02-10 16:50:00,35.8,19.1,30.37,SE,135,6.7,9.8,50,2.59,,,0.00,WUHU216HW,2013-02-10 21:50:00,
2013-02-10 16:55:00,35.8,18.5,30.37,SE,135,4.7,8.1,49,2.59,,,0.00,WUHU216HW,2013-02-10 21:55:00,
2013-02-10 17:00:00,35.8,19.1,30.37,ESE,113,11.4,11.4,50,0.00,,,0.00,WUHU216HW,2013-02-10 22:00:00,
2013-02-10 17:05:00,35.8,18.5,30.36,ESE,113,7.6,12.3,49,2.59,,,0.00,WUHU216HW,2013-02-10 22:05:00,
2013-02-10 17:10:00,35.6,18.9,30.37,ESE,113,8.3,12.3,50,2.59,,,0.00,WUHU216HW,2013-02-10 22:10:00,
2013-02-10 17:15:00,35.6,18.9,30.36,SE,135,2.2,8.3,50,2.59,,,0.00,WUHU216HW,2013-02-10 22:15:00,
2013-02-10 17:20:00,35.6,18.9,30.37,SE,135,5.8,7.6,50,2.59,,,0.00,WUHU216HW,2013-02-10 22:20:00,
2013-02-10 17:25:00,35.5,18.7,30.38,SE,135,6.3,7.6,50,2.59,,,0.00,WUHU216HW,2013-02-10 22:25:00,
2013-02-10 17:30:00,35.3,18.5,30.38,SE,135,7.6,9.2,50,2.59,,,0.00,WUHU216HW,2013-02-10 22:30:00,
2013-02-10 17:35:00,35.1,18.4,30.38,SSE,158,5.4,10.3,50,2.59,,,0.00,WUHU216HW,2013-02-10 22:35:00,
2013-02-10 17:40:00,35.1,18.8,30.37,East,90,3.1,10.3,51,2.59,,,0.00,WUHU216HW,2013-02-10 22:40:00,
2013-02-10 17:45:00,34.9,18.6,30.38,SW,225,2.5,6.0,51,2.59,,,0.00,WUHU216HW,2013-02-10 22:45:00,
2013-02-10 17:50:00,34.9,18.2,30.38,East,90,4.7,8.7,50,2.59,,,0.00,WUHU216HW,2013-02-10 22:50:00,
2013-02-10 17:55:00,34.9,18.6,30.38,SSE,158,2.9,8.7,51,2.59,,,0.00,WUHU216HW,2013-02-10 22:55:00,
2013-02-10 18:00:00,34.9,18.6,30.38,WSW,248,0.9,8.5,51,2.59,,,0.00,WUHU216HW,2013-02-10 23:00:00,
2013-02-10 18:05:00,34.9,18.6,30.38,NW,315,3.8,6.3,51,2.59,,,0.00,WUHU216HW,2013-02-10 23:05:00,
2013-02-10 18:10:00,34.9,18.6,30.37,South,180,5.4,6.9,51,2.59,,,0.00,WUHU216HW,2013-02-10 23:10:00,
2013-02-10 18:15:00,34.7,18.5,30.37,ESE,113,1.8,6.9,51,2.59,,,0.00,WUHU216HW,2013-02-10 23:15:00,
2013-02-10 18:20:00,34.7,18.9,30.37,SE,135,0.4,5.4,52,2.59,,,0.00,WUHU216HW,2013-02-10 23:20:00,
2013-02-10 18:25:00,34.7,18.9,30.36,NE,45,1.1,8.3,52,2.59,,,0.00,WUHU216HW,2013-02-10 23:25:00,
2013-02-10 18:30:00,34.7,18.9,30.36,SE,135,5.4,8.5,52,2.59,,,0.00,WUHU216HW,2013-02-10 23:30:00,
2013-02-10 18:35:00,34.9,19.1,30.36,SSE,158,7.2,10.5,52,2.59,,,0.00,WUHU216HW,2013-02-10 23:35:00,
2013-02-10 18:40:00,34.7,19.3,30.36,SE,135,6.9,10.5,53,2.59,,,0.00,WUHU216HW,2013-02-10 23:40:00,
2013-02-10 18:45:00,34.7,19.3,30.36,SSE,158,8.3,8.3,53,2.59,,,0.00,WUHU216HW,2013-02-10 23:45:00,
2013-02-10 18:50:00,34.7,19.3,30.36,SW,225,5.1,8.7,53,2.59,,,0.00,WUHU216HW,2013-02-10 23:50:00,
2013-02-10 18:55:00,34.6,19.1,30.36,NNW,338,3.4,8.7,53,2.59,,,0.00,WUHU216HW,2013-02-10 23:55:00,
2013-02-10 19:00:00,34.6,19.1,30.36,SE,135,3.1,9.6,53,2.59,,,0.00,WUHU216HW,2013-02-11 00:00:00,
2013-02-10 19:05:00,34.4,18.9,30.36,ENE,68,5.6,9.6,53,2.59,,,0.00,WUHU216HW,2013-02-11 00:05:00,
2013-02-10 19:10:00,34.6,19.1,30.36,SE,135,6.3,10.5,53,2.59,,,0.00,WUHU216HW,2013-02-11 00:10:00,
2013-02-10 19:15:00,34.4,18.9,30.35,SE,135,2.5,10.5,53,2.59,,,0.00,WUHU216HW,2013-02-11 00:15:00,
2013-02-10 19:20:00,34.6,19.1,30.35,South,180,2.7,10.1,53,2.59,,,0.00,WUHU216HW,2013-02-11 00:20:00,
2013-02-10 19:25:00,34.6,19.1,30.36,SSW,203,2.7,6.0,53,2.59,,,0.00,WUHU216HW,2013-02-11 00:25:00,
2013-02-10 19:30:00,34.6,19.1,30.36,South,180,4.7,5.4,53,2.59,,,0.00,WUHU216HW,2013-02-11 00:30:00,
2013-02-10 19:35:00,34.4,18.9,30.37,South,180,1.6,6.9,53,2.59,,,0.00,WUHU216HW,2013-02-11 00:35:00,
2013-02-10 19:40:00,34.4,19.4,30.36,SSE,158,5.6,6.9,54,2.59,,,0.00,WUHU216HW,2013-02-11 00:40:00,
2013-02-10 19:45:00,34.4,19.4,30.36,ESE,113,6.0,8.3,54,2.59,,,0.00,WUHU216HW,2013-02-11 00:45:00,
2013-02-10 19:50:00,34.4,19.4,30.36,SE,135,5.4,9.8,54,2.59,,,0.00,WUHU216HW,2013-02-11 00:50:00,
2013-02-10 19:55:00,34.4,19.4,30.35,SE,135,6.5,9.8,54,2.59,,,0.00,WUHU216HW,2013-02-11 00:55:00,
2013-02-10 20:00:00,34.4,19.4,30.35,WSW,248,0.7,8.5,54,2.59,,,0.00,WUHU216HW,2013-02-11 01:00:00,
2013-02-10 20:05:00,34.4,19.4,30.35,SE,135,6.3,8.9,54,2.59,,,0.00,WUHU216HW,2013-02-11 01:05:00,
2013-02-10 20:10:00,34.4,19.4,30.35,SE,135,1.6,10.5,54,2.59,,,0.00,WUHU216HW,2013-02-11 01:10:00,
2013-02-10 20:15:00,34.4,19.4,30.35,ENE,68,3.4,10.5,54,2.59,,,0.00,WUHU216HW,2013-02-11 01:15:00,
2013-02-10 20:20:00,34.4,19.4,30.36,ESE,113,2.9,6.3,54,2.59,,,0.00,WUHU216HW,2013-02-11 01:20:00,
2013-02-10 20:25:00,34.4,19.4,30.36,SE,135,0.9,8.5,54,2.59,,,0.00,WUHU216HW,2013-02-11 01:25:00,
2013-02-10 20:30:00,34.4,19.8,30.36,ESE,113,1.8,8.5,55,2.59,,,0.00,WUHU216HW,2013-02-11 01:30:00,
2013-02-10 20:35:00,34.4,19.4,30.35,South,180,8.7,8.7,54,2.59,,,0.00,WUHU216HW,2013-02-11 01:35:00,
2013-02-10 20:40:00,34.6,19.5,30.35,South,180,3.4,9.2,54,2.59,,,0.00,WUHU216HW,2013-02-11 01:40:00,
2013-02-10 20:45:00,34.6,19.5,30.34,ESE,113,3.6,9.2,54,2.59,,,0.00,WUHU216HW,2013-02-11 01:45:00,
2013-02-10 20:50:00,34.6,19.5,30.34,NNW,338,3.1,6.9,54,2.59,,,0.00,WUHU216HW,2013-02-11 01:50:00,
2013-02-10 20:55:00,34.6,19.5,30.34,East,90,8.3,8.3,54,2.59,,,0.00,WUHU216HW,2013-02-11 01:55:00,
2013-02-10 21:00:00,34.6,19.5,30.34,East,90,2.5,8.3,54,2.59,,,0.00,WUHU216HW,2013-02-11 02:00:00,
2013-02-10 21:05:00,34.6,19.5,30.34,SSE,158,5.4,9.6,54,2.59,,,0.00,WUHU216HW,2013-02-11 02:05:00,
2013-02-10 21:10:00,34.7,19.7,30.33,SW,225,3.6,9.6,54,2.59,,,0.00,WUHU216HW,2013-02-11 02:10:00,
2013-02-10 21:15:00,34.6,19.5,30.32,SW,225,1.1,10.1,54,2.59,,,0.00,WUHU216HW,2013-02-11 02:15:00,
2013-02-10 21:20:00,34.7,19.7,30.32,ESE,113,6.3,10.1,54,2.59,,,0.00,WUHU216HW,2013-02-11 02:20:00,
2013-02-10 21:25:00,34.7,19.7,30.33,ESE,113,2.9,9.2,54,2.59,,,0.00,WUHU216HW,2013-02-11 02:25:00,
2013-02-10 21:30:00,34.7,19.7,30.32,SSW,203,3.1,9.2,54,2.59,,,0.00,WUHU216HW,2013-02-11 02:30:00,
2013-02-10 21:35:00,34.6,19.1,30.32,SE,135,5.1,6.7,53,2.59,,,0.00,WUHU216HW,2013-02-11 02:35:00,
2013-02-10 21:40:00,34.6,19.1,30.33,SW,225,6.3,6.5,53,2.59,,,0.00,WUHU216HW,2013-02-11 02:40:00,
2013-02-10 21:45:00,34.6,19.1,30.32,East,90,1.8,6.3,53,2.59,,,0.00,WUHU216HW,2013-02-11 02:45:00,
2013-02-10 21:50:00,34.7,19.3,30.32,SSW,203,1.3,6.3,53,2.59,,,0.00,WUHU216HW,2013-02-11 02:50:00,
2013-02-10 21:55:00,34.7,19.7,30.32,North,0,4.0,7.2,54,2.59,,,0.00,WUHU216HW,2013-02-11 02:55:00,
2013-02-10 22:00:00,34.6,19.5,30.32,SSE,158,4.0,7.6,54,2.59,,,0.00,WUHU216HW,2013-02-11 03:00:00,
2013-02-10 22:05:00,34.6,19.5,30.32,WNW,293,5.8,10.7,54,2.59,,,0.00,WUHU216HW,2013-02-11 03:05:00,
2013-02-10 22:10:00,34.6,19.5,30.32,ESE,113,6.3,10.7,54,2.59,,,0.00,WUHU216HW,2013-02-11 03:10:00,
2013-02-10 22:15:00,34.6,19.5,30.32,SSE,158,8.7,9.2,54,2.59,,,0.00,WUHU216HW,2013-02-11 03:15:00,
2013-02-10 22:20:00,34.6,19.5,30.32,SE,135,6.5,9.2,54,2.59,,,0.00,WUHU216HW,2013-02-11 03:20:00,
2013-02-10 22:25:00,34.6,20.0,30.32,SW,225,7.6,8.7,55,2.59,,,0.00,WUHU216HW,2013-02-11 03:25:00,
2013-02-10 22:30:00,34.6,20.0,30.32,East,90,4.5,9.8,55,2.59,,,0.00,WUHU216HW,2013-02-11 03:30:00,
2013-02-10 22:35:00,34.6,20.0,30.31,SE,135,5.1,9.8,55,2.59,,,0.00,WUHU216HW,2013-02-11 03:35:00,
2013-02-10 22:40:00,34.6,20.0,30.31,East,90,4.9,9.2,55,2.59,,,0.00,WUHU216HW,2013-02-11 03:40:00,
2013-02-10 22:45:00,34.6,20.0,30.31,SE,135,6.7,9.2,55,2.59,,,0.00,WUHU216HW,2013-02-11 03:45:00,
2013-02-10 22:50:00,34.6,20.0,30.31,ESE,113,4.5,8.5,55,2.59,,,0.00,WUHU216HW,2013-02-11 03:50:00,
2013-02-10 22:55:00,34.6,20.0,30.30,ESE,113,6.7,8.5,55,2.59,,,0.00,WUHU216HW,2013-02-11 03:55:00,
2013-02-10 23:00:00,34.6,20.0,30.30,South,180,4.3,8.5,55,2.59,,,0.00,WUHU216HW,2013-02-11 04:00:00,
2013-02-10 23:05:00,34.6,20.0,30.30,ESE,113,4.0,7.2,55,2.59,,,0.00,WUHU216HW,2013-02-11 04:05:00,
2013-02-10 23:10:00,34.6,20.0,30.30,ESE,113,6.3,8.1,55,2.59,,,0.00,WUHU216HW,2013-02-11 04:10:00,
2013-02-10 23:15:00,34.6,20.0,30.29,ESE,113,5.1,8.1,55,2.59,,,0.00,WUHU216HW,2013-02-11 04:15:00,
2013-02-10 23:20:00,34.6,20.0,30.29,SE,135,8.1,12.1,55,2.59,,,0.00,WUHU216HW,2013-02-11 04:20:00,
2013-02-10 23:25:00,34.6,20.0,30.29,ESE,113,6.9,12.1,55,2.59,,,0.00,WUHU216HW,2013-02-11 04:25:00,
2013-02-10 23:30:00,34.7,20.2,30.29,ESE,113,4.9,8.1,55,2.59,,,0.00,WUHU216HW,2013-02-11 04:30:00,
2013-02-10 23:35:00,34.7,20.6,30.29,ESE,113,8.3,8.3,56,2.59,,,0.00,WUHU216HW,2013-02-11 04:35:00,
2013-02-10 23:40:00,34.7,20.6,30.29,SSW,203,7.6,8.9,56,2.59,,,0.00,WUHU216HW,2013-02-11 04:40:00,
2013-02-10 23:45:00,34.9,21.3,30.29,ESE,113,2.5,8.9,57,2.59,,,0.00,WUHU216HW,2013-02-11 04:45:00,
2013-02-10 23:50:00,34.9,22.5,30.29,SSE,158,5.8,10.7,60,2.59,,,0.00,WUHU216HW,2013-02-11 04:50:00,
2013-02-10 23:55:00,34.6,22.9,30.29,SE,135,4.7,10.7,62,2.59,,,0.00,WUHU216HW,2013-02-11 04:55:00,